Regional Weather Roundup
Issued by NWS

Home | Current Version | Previous Version | Text Only | Print | Product List | Glossary Off
Versions: 1 2 3 4 5 6 7 8 9 10 11 12 13 14 15 16 17 18 19 20 21 22 23 24 25 26 27 28 29 30 31 32 33 34 35 36 37 38 39 40 41 42 43 44 45 46 47 48 49 50

000
ASUS43 KOAX 291802
RWRNE

WEATHER ROUNDUP FOR NEBRASKA
NATIONAL WEATHER SERVICE OMAHA NE
100 PM CDT WED MAR 29 2017

NOTES: SATELLITE DATA IS BEING USED TO AUGMENT CLOUD COVER ABOVE
       12000 FEET.
       "FAIR" INDICATES FEW OR NO CLOUDS BELOW 12,000 FEET WITH NO
       SIGNIFICANT WEATHER AND/OR OBSTRUCTIONS TO VISIBILITY.

  * THESE STATIONS DO NOT REPORT WEATHER SUCH AS RAIN...SNOW OR FOG.

NEZ001>004-019>022-054>056-291900-
NEBRASKA PANHANDLE

CITY           SKY/WX    TMP DP  RH WIND       PRES   REMARKS
SCOTTSBLUFF    CLOUDY    49  37  63 N8        30.08F
6HR MIN TEMP:  39; 6HR MAX TEMP:  49;

ALLIANCE       CLOUDY    47  39  74 N12       30.06F
6HR MIN TEMP:  38; 6HR MAX TEMP:  47;

CHADRON        CLOUDY    48  40  73 CALM      30.08F
6HR MIN TEMP:  40; 6HR MAX TEMP:  48;

KIMBALL        CLOUDY    46  39  75 N13       30.07F
SIDNEY         CLOUDY    45  38  76 N18       30.06F
6HR MIN TEMP:  37; 6HR MAX TEMP:  46;

$$

NEZ057>060-069>072-079>082-291900-
SOUTHWEST NEBRASKA

CITY           SKY/WX    TMP DP  RH WIND       PRES   REMARKS
NORTH PLATTE   CLOUDY    46  40  79 N18G26    30.00F
6HR MIN TEMP:  43; 6HR MAX TEMP:  46;

IMPERIAL       CLOUDY    46  39  76 N20G28    30.00F
6HR MIN TEMP:  41; 6HR MAX TEMP:  46;

LEXINGTON      LGT RAIN  44  41  90 N18G25    29.96F
MCCOOK         CLOUDY    45  42  89 N22       29.95F
6HR MIN TEMP:  43; 6HR MAX TEMP:  45; 6HR PCP:  0.02;

OGALLALA       CLOUDY    47  41  80 N15       30.04F
$$

NEZ005>010-023>029-035>040-094-291900-
NORTH CENTRAL NEBRASKA

CITY           SKY/WX    TMP DP  RH WIND       PRES   REMARKS
VALENTINE      CLOUDY    51  39  63 NE14      30.07F
6HR MIN TEMP:  41; 6HR MAX TEMP:  51;

AINSWORTH      CLOUDY    47  44  89 NE10G17   30.05F
BROKEN BOW     CLOUDY    45  39  79 N16G28    29.99F
6HR MIN TEMP:  44; 6HR MAX TEMP:  45; 6HR PCP: TRACE;

O`NEILL        CLOUDY    45  43  93 NE13      30.06F
ORD            LGT RAIN  44  40  85 NE18      29.99F FOG
6HR MIN TEMP:  44; 6HR MAX TEMP:  44; 6HR PCP:  0.01;

THEDFORD       CLOUDY    48  42  78 N16G22    30.04F
$$

NEZ041-046>049-061>064-073>077-083>087-291900-
SOUTH CENTRAL NEBRASKA

CITY           SKY/WX    TMP DP  RH WIND       PRES   REMARKS
GRAND ISLAND   LGT RAIN  43  43 100 NE18G31   29.94F FOG
6HR MIN TEMP:  43; 6HR MAX TEMP:  44; 6HR PCP:  0.05;

AURORA         LGT RAIN  43  42  99 NE20G25   29.92F
HASTINGS       LGT RAIN  44  42  93 NE20G30   29.90F FOG
6HR MIN TEMP:  43; 6HR MAX TEMP:  45; 6HR PCP:  0.09;

HEBRON         LGT RAIN  45  44  95 NE18G30   29.83F
HOLDREGE       LGT RAIN  43  41  92 N22G30    29.91F
KEARNEY *      CLOUDY    43  39  87 N24       29.93F
YORK           RAIN      43  43 100 NE20G26   29.92F
$$

NEZ011>018-030>034-042>045-291900-
NORTHEAST NEBRASKA

CITY           SKY/WX    TMP DP  RH WIND       PRES   REMARKS
NORFOLK        LGT RAIN  43  40  89 NE16G24   29.99F FOG
6HR MIN TEMP:  43; 6HR MAX TEMP:  44; 6HR PCP:  0.08;

ALBION         LGT RAIN  44  40  86 NE16      29.99F
BLAIR          CLOUDY    43  41  93 NE20G29   29.91F
FREMONT        RAIN      44  43  97 NE9G17    29.95F
TEKAMAH        LGT RAIN  46  42  86 NE18      29.96F FOG
6HR MIN TEMP:  44; 6HR MAX TEMP:  46; 6HR PCP:  0.22;

WAYNE          LGT RAIN  45  44  97 NE21G26   30.01F
$$

NEZ050>053-065>068-078-088>093-291900-
SOUTHEAST NEBRASKA

CITY           SKY/WX    TMP DP  RH WIND       PRES   REMARKS
LINCOLN        RAIN      44  43  96 NE16G23   29.91F FOG
6HR MIN TEMP:  44; 6HR MAX TEMP:  46; 6HR PCP:  0.28;

OMAHA EPPLEY   RAIN      44  39  82 NE20G30   29.92F
6HR MIN TEMP:  44; 6HR MAX TEMP:  47; 6HR PCP:  0.23;

BEATRICE       RAIN      44  44  99 NE15G30   29.84F
FALLS CITY     CLOUDY    46  45  96 NE14      29.79S
6HR MIN TEMP:  46; 6HR MAX TEMP:  48; 6HR PCP:  0.37;

NEBRASKA CITY  LGT RAIN  42  42 100 NE25      29.84F
PLATTSMOUTH    RAIN      42  39  88 NE16G29   29.88F
$$

NEZ044-045-051>053-067-291900-
OMAHA AREA

CITY           SKY/WX    TMP DP  RH WIND       PRES   REMARKS
OMAHA EPPLEY   RAIN      44  39  82 NE20G30   29.92F
6HR MIN TEMP:  44; 6HR MAX TEMP:  47; 6HR PCP:  0.23;

BLAIR          CLOUDY    43  41  93 NE20G29   29.91F
FREMONT        RAIN      44  43  97 NE9G17    29.95F
MILLARD        LGT RAIN  46  43  90 NE12G20   29.91F
OFFUTT AFB     HVY RAIN  43  40  90 NE15G28   29.89F FOG
PLATTSMOUTH    RAIN      42  39  88 NE16G29   29.88F
WAHOO          LGT RAIN  43  42  93 NE20G28   29.92F
$$



USA.gov is the U.S. government's official web portal to all federal, state and local government web resources and services.